Year,Month,Day,Hour,Minute,Value (Times are PST for temperature in C)
2011,11,11,00,00,8.60
2011,11,11,00,01,8.60
2011,11,11,00,02,8.60
2011,11,11,00,03,8.60
2011,11,11,00,04,8.60
2011,11,11,00,05,8.60
2011,11,11,00,06,8.60
2011,11,11,00,07,8.60
2011,11,11,00,08,8.60
2011,11,11,00,09,8.60
2011,11,11,00,10,8.60
2011,11,11,00,11,8.60
2011,11,11,00,12,8.60
2011,11,11,00,13,8.60
2011,11,11,00,14,8.60
2011,11,11,00,15,8.70
2011,11,11,00,16,8.70
2011,11,11,00,17,8.70
2011,11,11,00,18,8.80
2011,11,11,00,19,8.90
2011,11,11,00,20,9.00
2011,11,11,00,21,9.20
2011,11,11,00,22,9.30
2011,11,11,00,23,9.40
2011,11,11,00,24,9.50
2011,11,11,00,25,9.60
2011,11,11,00,26,9.70
2011,11,11,00,27,9.80
2011,11,11,00,28,9.90
2011,11,11,00,29,9.90
2011,11,11,00,30,10.00
2011,11,11,00,31,10.00
2011,11,11,00,32,9.90
2011,11,11,00,33,9.70
2011,11,11,00,34,9.60
2011,11,11,00,35,9.50
2011,11,11,00,36,9.40
2011,11,11,00,37,9.30
2011,11,11,00,38,9.20
2011,11,11,00,39,9.10
2011,11,11,00,40,9.00
2011,11,11,00,41,9.00
2011,11,11,00,42,8.90
2011,11,11,00,43,8.90
2011,11,11,00,44,8.80
2011,11,11,00,45,8.80
2011,11,11,00,46,8.80
2011,11,11,00,47,8.70
2011,11,11,00,48,8.70
2011,11,11,00,49,8.60
2011,11,11,00,50,8.60
2011,11,11,00,51,8.50
2011,11,11,00,52,8.50
2011,11,11,00,53,8.40
2011,11,11,00,54,8.40
2011,11,11,00,55,8.40
2011,11,11,00,56,8.40
2011,11,11,00,57,8.30
2011,11,11,00,58,8.30
2011,11,11,00,59,8.30
2011,11,11,01,00,8.30
2011,11,11,01,01,8.20
2011,11,11,01,02,8.20
2011,11,11,01,03,8.20
2011,11,11,01,04,8.20
2011,11,11,01,05,8.20
2011,11,11,01,06,8.20
2011,11,11,01,07,8.20
2011,11,11,01,08,8.10
2011,11,11,01,09,8.10
2011,11,11,01,10,8.10
2011,11,11,01,11,8.10
2011,11,11,01,12,8.10
2011,11,11,01,13,8.10
2011,11,11,01,14,8.00
2011,11,11,01,15,8.00
2011,11,11,01,16,8.00
2011,11,11,01,17,8.00
2011,11,11,01,18,8.00
2011,11,11,01,19,7.90
2011,11,11,01,20,7.90
2011,11,11,01,21,7.90
2011,11,11,01,22,7.90
2011,11,11,01,23,7.90
2011,11,11,01,24,7.90
2011,11,11,01,25,7.90
2011,11,11,01,26,7.80
2011,11,11,01,27,7.80
2011,11,11,01,28,7.80
2011,11,11,01,29,7.80
2011,11,11,01,30,7.80
2011,11,11,01,31,7.80
2011,11,11,01,32,7.80
2011,11,11,01,33,7.80
2011,11,11,01,34,7.80
2011,11,11,01,35,7.80
2011,11,11,01,36,7.80
2011,11,11,01,37,7.80
2011,11,11,01,38,7.80
2011,11,11,01,39,7.80
2011,11,11,01,40,7.80
2011,11,11,01,41,7.80
2011,11,11,01,42,7.80
2011,11,11,01,43,7.80
2011,11,11,01,44,7.80
2011,11,11,01,45,7.80
2011,11,11,01,46,7.80
2011,11,11,01,47,7.80
2011,11,11,01,48,7.80
2011,11,11,01,49,7.80
2011,11,11,01,50,7.80
2011,11,11,01,51,7.70
2011,11,11,01,52,7.70
2011,11,11,01,53,7.70
2011,11,11,01,54,7.70
2011,11,11,01,55,7.70
2011,11,11,01,56,7.70
2011,11,11,01,57,7.70
2011,11,11,01,58,7.70
2011,11,11,01,59,7.70
2011,11,11,02,00,7.70
2011,11,11,02,01,7.70
2011,11,11,02,02,7.70
2011,11,11,02,03,7.60
2011,11,11,02,04,7.60
2011,11,11,02,05,7.60
2011,11,11,02,06,7.70
2011,11,11,02,07,7.70
2011,11,11,02,08,7.70
2011,11,11,02,09,7.70
2011,11,11,02,10,7.70
2011,11,11,02,11,7.70
2011,11,11,02,12,7.70
2011,11,11,02,13,7.70
2011,11,11,02,14,7.80
2011,11,11,02,15,7.80
2011,11,11,02,16,7.80
2011,11,11,02,17,7.90
2011,11,11,02,18,8.00
2011,11,11,02,19,8.10
2011,11,11,02,20,8.20
2011,11,11,02,21,8.40
2011,11,11,02,22,8.50
2011,11,11,02,23,8.50
2011,11,11,02,24,8.60
2011,11,11,02,25,8.70
2011,11,11,02,26,8.80
2011,11,11,02,27,9.00
2011,11,11,02,28,9.10
2011,11,11,02,29,9.20
2011,11,11,02,30,9.20
2011,11,11,02,31,9.30
2011,11,11,02,32,9.40
2011,11,11,02,33,9.40
2011,11,11,02,34,9.50
2011,11,11,02,35,9.60
2011,11,11,02,36,9.60
2011,11,11,02,37,9.60
2011,11,11,02,38,9.70
2011,11,11,02,39,9.70
2011,11,11,02,40,9.70
2011,11,11,02,41,9.80
2011,11,11,02,42,9.80
2011,11,11,02,43,9.80
2011,11,11,02,44,9.80
2011,11,11,02,45,9.80
2011,11,11,02,46,9.90
2011,11,11,02,47,9.90
2011,11,11,02,48,10.00
2011,11,11,02,49,10.00
2011,11,11,02,50,10.00
2011,11,11,02,51,10.00
2011,11,11,02,52,9.90
2011,11,11,02,53,9.90
2011,11,11,02,54,9.90
2011,11,11,02,55,9.80
2011,11,11,02,56,9.80
2011,11,11,02,57,9.80
2011,11,11,02,58,9.80
2011,11,11,02,59,9.80
2011,11,11,03,00,9.80
2011,11,11,03,01,9.90
2011,11,11,03,02,9.90
2011,11,11,03,03,9.90
2011,11,11,03,04,9.90
2011,11,11,03,05,9.90
2011,11,11,03,06,9.90
2011,11,11,03,07,9.90
2011,11,11,03,08,9.90
2011,11,11,03,09,9.80
2011,11,11,03,10,9.80
2011,11,11,03,11,9.80
2011,11,11,03,12,9.70
2011,11,11,03,13,9.70
2011,11,11,03,14,9.70
2011,11,11,03,15,9.60
2011,11,11,03,16,9.60
2011,11,11,03,17,9.60
2011,11,11,03,18,9.70
2011,11,11,03,19,9.70
2011,11,11,03,20,9.70
2011,11,11,03,21,9.70
2011,11,11,03,22,9.70
2011,11,11,03,23,9.80
2011,11,11,03,24,9.80
2011,11,11,03,25,9.80
2011,11,11,03,26,9.80
2011,11,11,03,27,9.80
2011,11,11,03,28,9.80
2011,11,11,03,29,9.80
2011,11,11,03,30,9.80
2011,11,11,03,31,9.80
2011,11,11,03,32,9.80
2011,11,11,03,33,9.80
2011,11,11,03,34,9.70
2011,11,11,03,35,9.70
2011,11,11,03,36,9.70
2011,11,11,03,37,9.70
2011,11,11,03,38,9.70
2011,11,11,03,39,9.80
2011,11,11,03,40,9.80
2011,11,11,03,41,9.80
2011,11,11,03,42,9.80
2011,11,11,03,43,9.80
2011,11,11,03,44,9.80
2011,11,11,03,45,9.80
2011,11,11,03,46,9.80
2011,11,11,03,47,9.80
2011,11,11,03,48,9.70
2011,11,11,03,49,9.70
2011,11,11,03,50,9.70
2011,11,11,03,51,9.70
2011,11,11,03,52,9.70
2011,11,11,03,53,9.70
2011,11,11,03,54,9.70
2011,11,11,03,55,9.70
2011,11,11,03,56,9.70
2011,11,11,03,57,9.70
2011,11,11,03,58,9.70
2011,11,11,03,59,9.70
2011,11,11,04,00,9.70
2011,11,11,04,01,9.70
2011,11,11,04,02,9.70
2011,11,11,04,03,9.70
2011,11,11,04,04,9.70
2011,11,11,04,05,9.70
2011,11,11,04,06,9.60
2011,11,11,04,07,9.60
2011,11,11,04,08,9.60
2011,11,11,04,09,9.60
2011,11,11,04,10,9.60
2011,11,11,04,11,9.60
2011,11,11,04,12,9.50
2011,11,11,04,13,9.50
2011,11,11,04,14,9.50
2011,11,11,04,15,9.60
2011,11,11,04,16,9.60
2011,11,11,04,17,9.60
2011,11,11,04,18,9.60
2011,11,11,04,19,9.60
2011,11,11,04,20,9.60
2011,11,11,04,21,9.60
2011,11,11,04,22,9.60
2011,11,11,04,23,9.50
2011,11,11,04,24,9.60
2011,11,11,04,25,9.60
2011,11,11,04,26,9.60
2011,11,11,04,27,9.60
2011,11,11,04,28,9.60
2011,11,11,04,29,9.70
2011,11,11,04,30,9.70
2011,11,11,04,31,9.70
2011,11,11,04,32,9.70
2011,11,11,04,33,9.70
2011,11,11,04,34,9.60
2011,11,11,04,35,9.60
2011,11,11,04,36,9.60
2011,11,11,04,37,9.60
2011,11,11,04,38,9.60
2011,11,11,04,39,9.60
2011,11,11,04,40,9.60
2011,11,11,04,41,9.60
2011,11,11,04,42,9.50
2011,11,11,04,43,9.50
2011,11,11,04,44,9.50
2011,11,11,04,45,9.50
2011,11,11,04,46,9.40
2011,11,11,04,47,9.40
2011,11,11,04,48,9.40
2011,11,11,04,49,9.40
2011,11,11,04,50,9.30
2011,11,11,04,51,9.30
2011,11,11,04,52,9.30
2011,11,11,04,53,9.20
2011,11,11,04,54,9.20
2011,11,11,04,55,9.20
2011,11,11,04,56,9.20
2011,11,11,04,57,9.10
2011,11,11,04,58,9.10
2011,11,11,04,59,9.10
2011,11,11,05,00,9.10
2011,11,11,05,01,9.10
2011,11,11,05,02,9.10
2011,11,11,05,03,9.10
2011,11,11,05,04,9.10
2011,11,11,05,05,9.10
2011,11,11,05,06,9.10
2011,11,11,05,07,9.00
2011,11,11,05,08,9.00
2011,11,11,05,09,8.90
2011,11,11,05,10,8.90
2011,11,11,05,11,8.90
2011,11,11,05,12,8.90
2011,11,11,05,13,8.90
2011,11,11,05,14,8.80
2011,11,11,05,15,8.80
2011,11,11,05,16,8.80
2011,11,11,05,17,8.70
2011,11,11,05,18,8.70
2011,11,11,05,19,8.70
2011,11,11,05,20,8.70
2011,11,11,05,21,8.70
2011,11,11,05,22,8.70
2011,11,11,05,23,8.70
2011,11,11,05,24,8.70
2011,11,11,05,25,8.70
2011,11,11,05,26,8.70
2011,11,11,05,27,8.70
2011,11,11,05,28,8.70
2011,11,11,05,29,8.80
2011,11,11,05,30,8.80
2011,11,11,05,31,8.80
2011,11,11,05,32,8.80
2011,11,11,05,33,8.70
2011,11,11,05,34,8.70
2011,11,11,05,35,8.70
2011,11,11,05,36,8.70
2011,11,11,05,37,8.80
2011,11,11,05,38,8.80
2011,11,11,05,39,8.80
2011,11,11,05,40,8.80
2011,11,11,05,41,8.80
2011,11,11,05,42,8.80
2011,11,11,05,43,8.80
2011,11,11,05,44,8.80
2011,11,11,05,45,8.80
2011,11,11,05,46,8.80
2011,11,11,05,47,8.80
2011,11,11,05,48,8.80
2011,11,11,05,49,8.80
2011,11,11,05,50,8.80
2011,11,11,05,51,8.80
2011,11,11,05,52,8.80
2011,11,11,05,53,8.70
2011,11,11,05,54,8.70
2011,11,11,05,55,8.70
2011,11,11,05,56,8.70
2011,11,11,05,57,8.70
2011,11,11,05,58,8.70
2011,11,11,05,59,8.70
2011,11,11,06,00,8.70
2011,11,11,06,01,8.70
2011,11,11,06,02,8.70
2011,11,11,06,03,8.70
2011,11,11,06,04,8.70
2011,11,11,06,05,8.70
2011,11,11,06,06,8.70
2011,11,11,06,07,8.70
2011,11,11,06,08,8.70
2011,11,11,06,09,8.70
2011,11,11,06,10,8.70
2011,11,11,06,11,8.70
2011,11,11,06,12,8.70
2011,11,11,06,13,8.70
2011,11,11,06,14,8.70
2011,11,11,06,15,8.70
2011,11,11,06,16,8.70
2011,11,11,06,17,8.70
2011,11,11,06,18,8.70
2011,11,11,06,19,8.60
2011,11,11,06,20,8.60
2011,11,11,06,21,8.60
2011,11,11,06,22,8.60
2011,11,11,06,23,8.50
2011,11,11,06,24,8.50
2011,11,11,06,25,8.50
2011,11,11,06,26,8.40
2011,11,11,06,27,8.40
2011,11,11,06,28,8.40
2011,11,11,06,29,8.40
2011,11,11,06,30,8.40
2011,11,11,06,31,8.30
2011,11,11,06,32,8.30
2011,11,11,06,33,8.30
2011,11,11,06,34,8.30
2011,11,11,06,35,8.30
2011,11,11,06,36,8.30
2011,11,11,06,37,8.20
2011,11,11,06,38,8.20
2011,11,11,06,39,8.20
2011,11,11,06,40,8.20
2011,11,11,06,41,8.20
2011,11,11,06,42,8.20
2011,11,11,06,43,8.20
2011,11,11,06,44,8.20
2011,11,11,06,45,8.10
2011,11,11,06,46,8.10
2011,11,11,06,47,8.10
2011,11,11,06,48,8.10
2011,11,11,06,49,8.10
2011,11,11,06,50,8.10
2011,11,11,06,51,8.10
2011,11,11,06,52,8.10
2011,11,11,06,53,8.10
2011,11,11,06,54,8.10
2011,11,11,06,55,8.20
2011,11,11,06,56,8.20
2011,11,11,06,57,8.30
2011,11,11,06,58,8.30
2011,11,11,06,59,8.30
2011,11,11,07,00,8.30
2011,11,11,07,01,8.40
2011,11,11,07,02,8.40
2011,11,11,07,03,8.40
2011,11,11,07,04,8.40
2011,11,11,07,05,8.50
2011,11,11,07,06,8.50
2011,11,11,07,07,8.60
2011,11,11,07,08,8.60
2011,11,11,07,09,8.60
2011,11,11,07,10,8.60
2011,11,11,07,11,8.60
2011,11,11,07,12,8.60
2011,11,11,07,13,8.60
2011,11,11,07,14,8.60
2011,11,11,07,15,8.60
2011,11,11,07,16,8.60
2011,11,11,07,17,8.50
2011,11,11,07,18,8.50
2011,11,11,07,19,8.50
2011,11,11,07,20,8.60
2011,11,11,07,21,8.60
2011,11,11,07,22,8.70
2011,11,11,07,23,8.70
2011,11,11,07,24,8.70
2011,11,11,07,25,8.70
2011,11,11,07,26,8.60
2011,11,11,07,27,8.60
2011,11,11,07,28,8.50
2011,11,11,07,29,8.50
2011,11,11,07,30,8.50
2011,11,11,07,31,8.50
2011,11,11,07,32,8.50
2011,11,11,07,33,8.50
2011,11,11,07,34,8.60
2011,11,11,07,35,8.70
2011,11,11,07,36,8.80
2011,11,11,07,37,8.90
2011,11,11,07,38,8.90
2011,11,11,07,39,8.90
2011,11,11,07,40,8.90
2011,11,11,07,41,8.80
2011,11,11,07,42,8.80
2011,11,11,07,43,8.80
2011,11,11,07,44,8.80
2011,11,11,07,45,8.80
2011,11,11,07,46,8.80
2011,11,11,07,47,8.80
2011,11,11,07,48,8.80
2011,11,11,07,49,8.80
2011,11,11,07,50,8.80
2011,11,11,07,51,8.80
2011,11,11,07,52,8.80
2011,11,11,07,53,8.80
2011,11,11,07,54,8.80
2011,11,11,07,55,8.80
2011,11,11,07,56,8.80
2011,11,11,07,57,8.80
2011,11,11,07,58,8.80
2011,11,11,07,59,8.80
2011,11,11,08,00,8.80
2011,11,11,08,01,8.80
2011,11,11,08,02,8.80
2011,11,11,08,03,8.80
2011,11,11,08,04,8.80
2011,11,11,08,05,8.80
2011,11,11,08,06,8.70
2011,11,11,08,07,8.70
2011,11,11,08,08,8.70
2011,11,11,08,09,8.70
2011,11,11,08,10,8.70
2011,11,11,08,11,8.70
2011,11,11,08,12,8.60
2011,11,11,08,13,8.60
2011,11,11,08,14,8.60
2011,11,11,08,15,8.50
2011,11,11,08,16,8.50
2011,11,11,08,17,8.40
2011,11,11,08,18,8.40
2011,11,11,08,19,8.40
2011,11,11,08,20,8.40
2011,11,11,08,21,8.40
2011,11,11,08,22,8.30
2011,11,11,08,23,8.30
2011,11,11,08,24,8.30
2011,11,11,08,25,8.30
2011,11,11,08,26,8.30
2011,11,11,08,27,8.30
2011,11,11,08,28,8.30
2011,11,11,08,29,8.20
2011,11,11,08,30,8.20
2011,11,11,08,31,8.20
2011,11,11,08,32,8.20
2011,11,11,08,33,8.20
2011,11,11,08,34,8.20
2011,11,11,08,35,8.10
2011,11,11,08,36,8.10
2011,11,11,08,37,8.10
2011,11,11,08,38,8.10
2011,11,11,08,39,8.10
2011,11,11,08,40,8.10
2011,11,11,08,41,8.00
2011,11,11,08,42,8.00
2011,11,11,08,43,8.00
2011,11,11,08,44,8.00
2011,11,11,08,45,8.00
2011,11,11,08,46,8.00
2011,11,11,08,47,8.00
2011,11,11,08,48,8.00
2011,11,11,08,49,8.00
2011,11,11,08,50,8.00
2011,11,11,08,51,8.10
2011,11,11,08,52,8.10
2011,11,11,08,53,8.10
2011,11,11,08,54,8.10
2011,11,11,08,55,8.10
2011,11,11,08,56,8.10
2011,11,11,08,57,8.00
2011,11,11,08,58,8.10
2011,11,11,08,59,8.10
2011,11,11,09,00,8.00
2011,11,11,09,01,8.00
2011,11,11,09,02,8.00
2011,11,11,09,03,8.00
2011,11,11,09,04,8.00
2011,11,11,09,05,8.00
2011,11,11,09,06,8.00
2011,11,11,09,07,8.00
2011,11,11,09,08,8.00
2011,11,11,09,09,8.00
2011,11,11,09,10,8.10
2011,11,11,09,11,8.10
2011,11,11,09,12,8.10
2011,11,11,09,13,8.10
2011,11,11,09,14,8.10
2011,11,11,09,15,8.10
2011,11,11,09,16,8.20
2011,11,11,09,17,8.20
2011,11,11,09,18,8.20
2011,11,11,09,19,8.20
2011,11,11,09,20,8.20
2011,11,11,09,21,8.30
2011,11,11,09,22,8.30
2011,11,11,09,23,8.30
2011,11,11,09,24,8.30
2011,11,11,09,25,8.30
2011,11,11,09,26,8.30
2011,11,11,09,27,8.40
2011,11,11,09,28,8.40
2011,11,11,09,29,8.40
2011,11,11,09,30,8.50
2011,11,11,09,31,8.50
2011,11,11,09,32,8.50
2011,11,11,09,33,8.60
2011,11,11,09,34,8.60
2011,11,11,09,35,8.60
2011,11,11,09,36,8.60
2011,11,11,09,37,8.70
2011,11,11,09,38,8.80
2011,11,11,09,39,8.80
2011,11,11,09,40,8.80
2011,11,11,09,41,8.80
2011,11,11,09,42,8.90
2011,11,11,09,43,8.90
2011,11,11,09,44,8.90
2011,11,11,09,45,8.90
2011,11,11,09,46,8.90
2011,11,11,09,47,9.00
2011,11,11,09,48,9.00
2011,11,11,09,49,9.00
2011,11,11,09,50,9.00
2011,11,11,09,51,9.00
2011,11,11,09,52,8.90
2011,11,11,09,53,8.90
2011,11,11,09,54,8.90
2011,11,11,09,55,9.00
2011,11,11,09,56,9.00
2011,11,11,09,57,9.10
2011,11,11,09,58,9.10
2011,11,11,09,59,9.20
2011,11,11,10,00,9.20
2011,11,11,10,01,9.30
2011,11,11,10,02,9.30
2011,11,11,10,03,9.30
2011,11,11,10,04,9.40
2011,11,11,10,05,9.30
2011,11,11,10,06,9.30
2011,11,11,10,07,9.30
2011,11,11,10,08,9.30
2011,11,11,10,09,9.40
2011,11,11,10,10,9.50
2011,11,11,10,11,9.60
2011,11,11,10,12,9.70
2011,11,11,10,13,9.80
2011,11,11,10,14,9.90
2011,11,11,10,15,10.00
2011,11,11,10,16,10.10
2011,11,11,10,17,10.20
2011,11,11,10,18,10.30
2011,11,11,10,19,10.40
2011,11,11,10,20,10.50
2011,11,11,10,21,10.60
2011,11,11,10,22,10.70
2011,11,11,10,23,10.70
2011,11,11,10,24,10.70
2011,11,11,10,25,10.70
2011,11,11,10,26,10.60
2011,11,11,10,27,10.60
2011,11,11,10,28,10.60
2011,11,11,10,29,10.50
2011,11,11,10,30,10.50
2011,11,11,10,31,10.60
2011,11,11,10,32,10.60
2011,11,11,10,33,10.70
2011,11,11,10,34,10.70
2011,11,11,10,35,10.70
2011,11,11,10,36,10.70
2011,11,11,10,37,10.80
2011,11,11,10,38,10.80
2011,11,11,10,39,10.90
2011,11,11,10,40,10.90
2011,11,11,10,41,10.80
2011,11,11,10,42,10.80
2011,11,11,10,43,10.80
2011,11,11,10,44,10.80
2011,11,11,10,45,10.80
2011,11,11,10,46,10.70
2011,11,11,10,47,10.60
2011,11,11,10,48,10.40
2011,11,11,10,49,10.40
2011,11,11,10,50,10.30
2011,11,11,10,51,10.40
2011,11,11,10,52,10.50
2011,11,11,10,53,10.50
2011,11,11,10,54,10.60
2011,11,11,10,55,10.70
2011,11,11,10,56,10.90
2011,11,11,10,57,11.00
2011,11,11,10,58,11.20
2011,11,11,10,59,11.30
2011,11,11,11,00,11.40
2011,11,11,11,01,11.60
2011,11,11,11,02,11.70
2011,11,11,11,03,11.80
2011,11,11,11,04,11.80
2011,11,11,11,05,11.70
2011,11,11,11,06,11.60
2011,11,11,11,07,11.40
2011,11,11,11,08,11.40
2011,11,11,11,09,11.30
2011,11,11,11,10,11.30
2011,11,11,11,11,11.30
2011,11,11,11,12,11.40
2011,11,11,11,13,11.50
2011,11,11,11,14,11.60
2011,11,11,11,15,11.70
2011,11,11,11,16,11.80
2011,11,11,11,17,11.90
2011,11,11,11,18,12.00
2011,11,11,11,19,12.10
2011,11,11,11,20,12.20
2011,11,11,11,21,12.20
2011,11,11,11,22,12.30
2011,11,11,11,23,12.40
2011,11,11,11,24,12.30
2011,11,11,11,25,12.20
2011,11,11,11,26,12.00
2011,11,11,11,27,11.90
2011,11,11,11,28,11.90
2011,11,11,11,29,11.90
2011,11,11,11,30,11.90
2011,11,11,11,31,11.80
2011,11,11,11,32,11.80
2011,11,11,11,33,11.80
2011,11,11,11,34,11.80
2011,11,11,11,35,11.80
2011,11,11,11,36,11.80
2011,11,11,11,37,11.80
2011,11,11,11,38,11.80
2011,11,11,11,39,11.90
2011,11,11,11,40,12.00
2011,11,11,11,41,12.10
2011,11,11,11,42,12.10
2011,11,11,11,43,12.20
2011,11,11,11,44,12.20
2011,11,11,11,45,12.30
2011,11,11,11,46,12.30
2011,11,11,11,47,12.30
2011,11,11,11,48,12.20
2011,11,11,11,49,12.10
2011,11,11,11,50,12.10
2011,11,11,11,51,12.00
2011,11,11,11,52,11.90
2011,11,11,11,53,11.90
2011,11,11,11,54,11.80
2011,11,11,11,55,11.70
2011,11,11,11,56,11.60
2011,11,11,11,57,11.50
2011,11,11,11,58,11.50
2011,11,11,11,59,11.40
2011,11,11,12,00,11.40
2011,11,11,12,01,11.30
2011,11,11,12,02,11.30
2011,11,11,12,03,11.30
2011,11,11,12,04,11.20
2011,11,11,12,05,11.20
2011,11,11,12,06,11.20
2011,11,11,12,07,11.20
2011,11,11,12,08,11.30
2011,11,11,12,09,11.30
2011,11,11,12,10,11.30
2011,11,11,12,11,11.30
2011,11,11,12,12,11.30
2011,11,11,12,13,11.30
2011,11,11,12,14,11.20
2011,11,11,12,15,11.20
2011,11,11,12,16,11.20
2011,11,11,12,17,11.10
2011,11,11,12,18,11.10
2011,11,11,12,19,11.10
2011,11,11,12,20,11.10
2011,11,11,12,21,11.10
2011,11,11,12,22,11.20
2011,11,11,12,23,11.20
2011,11,11,12,24,11.20
2011,11,11,12,25,11.30
2011,11,11,12,26,11.40
2011,11,11,12,27,11.40
2011,11,11,12,28,11.50
2011,11,11,12,29,11.60
2011,11,11,12,30,11.70
2011,11,11,12,31,11.80
2011,11,11,12,32,12.00
2011,11,11,12,33,12.00
2011,11,11,12,34,12.00
2011,11,11,12,35,11.90
2011,11,11,12,36,11.90
2011,11,11,12,37,11.80
2011,11,11,12,38,11.80
2011,11,11,12,39,11.80
2011,11,11,12,40,11.80
2011,11,11,12,41,11.80
2011,11,11,12,42,11.80
2011,11,11,12,43,11.80
2011,11,11,12,44,11.80
2011,11,11,12,45,11.80
2011,11,11,12,46,11.80
2011,11,11,12,47,11.80
2011,11,11,12,48,11.80
2011,11,11,12,49,11.80
2011,11,11,12,50,11.70
2011,11,11,12,51,11.70
2011,11,11,12,52,11.60
2011,11,11,12,53,11.60
2011,11,11,12,54,11.50
2011,11,11,12,55,11.40
2011,11,11,12,56,11.40
2011,11,11,12,57,11.30
2011,11,11,12,58,11.20
2011,11,11,12,59,11.00
2011,11,11,13,00,10.50
2011,11,11,13,01,9.70
2011,11,11,13,02,8.60
2011,11,11,13,03,7.70
2011,11,11,13,04,7.10
2011,11,11,13,05,6.70
2011,11,11,13,06,6.40
2011,11,11,13,07,6.10
2011,11,11,13,08,5.80
2011,11,11,13,09,5.50
2011,11,11,13,10,5.40
2011,11,11,13,11,5.20
2011,11,11,13,12,5.10
2011,11,11,13,13,5.10
2011,11,11,13,14,5.00
2011,11,11,13,15,4.90
2011,11,11,13,16,4.90
2011,11,11,13,17,4.80
2011,11,11,13,18,4.80
2011,11,11,13,19,4.80
2011,11,11,13,20,4.70
2011,11,11,13,21,4.60
2011,11,11,13,22,4.50
2011,11,11,13,23,4.40
2011,11,11,13,24,4.30
2011,11,11,13,25,4.30
2011,11,11,13,26,4.20
2011,11,11,13,27,4.20
2011,11,11,13,28,4.20
2011,11,11,13,29,4.20
2011,11,11,13,30,4.20
2011,11,11,13,31,4.20
2011,11,11,13,32,4.10
2011,11,11,13,33,4.20
2011,11,11,13,34,4.20
2011,11,11,13,35,4.20
2011,11,11,13,36,4.20
2011,11,11,13,37,4.20
2011,11,11,13,38,4.20
2011,11,11,13,39,4.20
2011,11,11,13,40,4.30
2011,11,11,13,41,4.30
2011,11,11,13,42,4.30
2011,11,11,13,43,4.30
2011,11,11,13,44,4.30
2011,11,11,13,45,4.40
2011,11,11,13,46,4.40
2011,11,11,13,47,4.40
2011,11,11,13,48,4.50
2011,11,11,13,49,4.50
2011,11,11,13,50,4.50
2011,11,11,13,51,4.50
2011,11,11,13,52,4.50
2011,11,11,13,53,4.50
2011,11,11,13,54,4.50
2011,11,11,13,55,4.50
2011,11,11,13,56,4.50
2011,11,11,13,57,4.60
2011,11,11,13,58,4.60
2011,11,11,13,59,4.60
2011,11,11,14,00,4.60
2011,11,11,14,01,4.60
2011,11,11,14,02,4.60
2011,11,11,14,03,4.60
2011,11,11,14,04,4.60
2011,11,11,14,05,4.50
2011,11,11,14,06,4.50
2011,11,11,14,07,4.50
2011,11,11,14,08,4.40
2011,11,11,14,09,4.40
2011,11,11,14,10,4.30
2011,11,11,14,11,4.30
2011,11,11,14,12,4.20
2011,11,11,14,13,4.20
2011,11,11,14,14,4.20
2011,11,11,14,15,4.10
2011,11,11,14,16,4.00
2011,11,11,14,17,3.90
2011,11,11,14,18,3.90
2011,11,11,14,19,3.90
2011,11,11,14,20,3.80
2011,11,11,14,21,3.80
2011,11,11,14,22,3.70
2011,11,11,14,23,3.70
2011,11,11,14,24,3.70
2011,11,11,14,25,3.60
2011,11,11,14,26,3.60
2011,11,11,14,27,3.60
2011,11,11,14,28,3.60
2011,11,11,14,29,3.60
2011,11,11,14,30,3.60
2011,11,11,14,31,3.60
2011,11,11,14,32,3.60
2011,11,11,14,33,3.60
2011,11,11,14,34,3.60
2011,11,11,14,35,3.60
2011,11,11,14,36,3.60
2011,11,11,14,37,3.60
2011,11,11,14,38,3.60
2011,11,11,14,39,3.60
2011,11,11,14,40,3.60
2011,11,11,14,41,3.60
2011,11,11,14,42,3.60
2011,11,11,14,43,3.60
2011,11,11,14,44,3.60
2011,11,11,14,45,3.60
2011,11,11,14,46,3.60
2011,11,11,14,47,3.60
2011,11,11,14,48,3.60
2011,11,11,14,49,3.60
2011,11,11,14,50,3.60
2011,11,11,14,51,3.60
2011,11,11,14,52,3.60
2011,11,11,14,53,3.70
2011,11,11,14,54,3.70
2011,11,11,14,55,3.70
2011,11,11,14,56,3.80
2011,11,11,14,57,3.80
2011,11,11,14,58,3.90
2011,11,11,14,59,3.90
2011,11,11,15,00,3.90
2011,11,11,15,01,4.00
2011,11,11,15,02,4.00
2011,11,11,15,03,4.10
2011,11,11,15,04,4.10
2011,11,11,15,05,4.20
2011,11,11,15,06,4.20
2011,11,11,15,07,4.20
2011,11,11,15,08,4.20
2011,11,11,15,09,4.30
2011,11,11,15,10,4.30
2011,11,11,15,11,4.30
2011,11,11,15,12,4.40
2011,11,11,15,13,4.40
2011,11,11,15,14,4.50
2011,11,11,15,15,4.60
2011,11,11,15,16,4.70
2011,11,11,15,17,4.70
2011,11,11,15,18,4.80
2011,11,11,15,19,4.80
2011,11,11,15,20,4.90
2011,11,11,15,21,4.90
2011,11,11,15,22,5.00
2011,11,11,15,23,5.10
2011,11,11,15,24,5.10
2011,11,11,15,25,5.10
2011,11,11,15,26,5.10
2011,11,11,15,27,5.20
2011,11,11,15,28,5.20
2011,11,11,15,29,5.20
2011,11,11,15,30,5.20
2011,11,11,15,31,5.20
2011,11,11,15,32,5.30
2011,11,11,15,33,5.30
2011,11,11,15,34,5.30
2011,11,11,15,35,5.30
2011,11,11,15,36,5.30
2011,11,11,15,37,5.30
2011,11,11,15,38,5.30
2011,11,11,15,39,5.30
2011,11,11,15,40,5.30
2011,11,11,15,41,5.40
2011,11,11,15,42,5.40
2011,11,11,15,43,5.40
2011,11,11,15,44,5.40
2011,11,11,15,45,5.40
2011,11,11,15,46,5.40
2011,11,11,15,47,5.40
2011,11,11,15,48,5.40
2011,11,11,15,49,5.40
2011,11,11,15,50,5.30
2011,11,11,15,51,5.30
2011,11,11,15,52,5.30
2011,11,11,15,53,5.20
2011,11,11,15,54,5.20
2011,11,11,15,55,5.10
2011,11,11,15,56,5.10
2011,11,11,15,57,5.10
2011,11,11,15,58,5.00
2011,11,11,15,59,4.90
2011,11,11,16,00,4.90
2011,11,11,16,01,4.80
2011,11,11,16,02,4.80
2011,11,11,16,03,4.80
2011,11,11,16,04,4.70
2011,11,11,16,05,4.70
2011,11,11,16,06,4.60
2011,11,11,16,07,4.60
2011,11,11,16,08,4.50
2011,11,11,16,09,4.50
2011,11,11,16,10,4.40
2011,11,11,16,11,4.40
2011,11,11,16,12,4.30
2011,11,11,16,13,4.30
2011,11,11,16,14,4.30
2011,11,11,16,15,4.20
2011,11,11,16,16,4.20
2011,11,11,16,17,4.20
2011,11,11,16,18,4.10
2011,11,11,16,19,4.10
2011,11,11,16,20,4.00
2011,11,11,16,21,4.00
2011,11,11,16,22,3.90
2011,11,11,16,23,3.90
2011,11,11,16,24,3.90
2011,11,11,16,25,3.80
2011,11,11,16,26,3.80
2011,11,11,16,27,3.80
2011,11,11,16,28,3.70
2011,11,11,16,29,3.70
2011,11,11,16,30,3.70
2011,11,11,16,31,3.70
2011,11,11,16,32,3.70
2011,11,11,16,33,3.60
2011,11,11,16,34,3.60
2011,11,11,16,35,3.60
2011,11,11,16,36,3.60
2011,11,11,16,37,3.60
2011,11,11,16,38,3.60
2011,11,11,16,39,3.60
2011,11,11,16,40,3.60
2011,11,11,16,41,3.50
2011,11,11,16,42,3.50
2011,11,11,16,43,3.50
2011,11,11,16,44,3.50
2011,11,11,16,45,3.50
2011,11,11,16,46,3.50
2011,11,11,16,47,3.50
2011,11,11,16,48,3.40
2011,11,11,16,49,3.40
2011,11,11,16,50,3.40
2011,11,11,16,51,3.40
2011,11,11,16,52,3.40
2011,11,11,16,53,3.40
2011,11,11,16,54,3.40
2011,11,11,16,55,3.40
2011,11,11,16,56,3.30
2011,11,11,16,57,3.30
2011,11,11,16,58,3.30
2011,11,11,16,59,3.30
2011,11,11,17,00,3.30
2011,11,11,17,01,3.30
2011,11,11,17,02,3.30
2011,11,11,17,03,3.30
2011,11,11,17,04,3.30
2011,11,11,17,05,3.30
2011,11,11,17,06,3.30
2011,11,11,17,07,3.30
2011,11,11,17,08,3.20
2011,11,11,17,09,3.20
2011,11,11,17,10,3.20
2011,11,11,17,11,3.20
2011,11,11,17,12,3.20
2011,11,11,17,13,3.20
2011,11,11,17,14,3.20
2011,11,11,17,15,3.20
2011,11,11,17,16,3.20
2011,11,11,17,17,3.20
2011,11,11,17,18,3.30
2011,11,11,17,19,3.30
2011,11,11,17,20,3.30
2011,11,11,17,21,3.30
2011,11,11,17,22,3.30
2011,11,11,17,23,3.30
2011,11,11,17,24,3.30
2011,11,11,17,25,3.30
2011,11,11,17,26,3.30
2011,11,11,17,27,3.40
2011,11,11,17,28,3.40
2011,11,11,17,29,3.50
2011,11,11,17,30,3.60
2011,11,11,17,31,3.60
2011,11,11,17,32,3.60
2011,11,11,17,33,3.70
2011,11,11,17,34,3.70
2011,11,11,17,35,3.70
2011,11,11,17,36,3.70
2011,11,11,17,37,3.70
2011,11,11,17,38,3.70
2011,11,11,17,39,3.70
2011,11,11,17,40,3.70
2011,11,11,17,41,3.70
2011,11,11,17,42,3.70
2011,11,11,17,43,3.70
2011,11,11,17,44,3.70
2011,11,11,17,45,3.60
2011,11,11,17,46,3.60
2011,11,11,17,47,3.60
2011,11,11,17,48,3.70
2011,11,11,17,49,3.70
2011,11,11,17,50,3.70
2011,11,11,17,51,3.70
2011,11,11,17,52,3.70
2011,11,11,17,53,3.70
2011,11,11,17,54,3.80
2011,11,11,17,55,3.80
2011,11,11,17,56,3.80
2011,11,11,17,57,3.90
2011,11,11,17,58,4.00